Home   Weather   Jelgava   Past weeks

Flag for Latvia Past Weather in Jelgava, Latvia — Yesterday and Last 2 Weeks

46 °F

Sprinkles. Partly cloudy.

Feels Like: 41 °F
Forecast: 39 / 46 °F
Wind: 12 mph from West

Location: Riga Airport

Current Time: Oct 28, 2016 at 11:07:58 PM

Latest Report: Oct 28, 2016 at 10:20 PM

Visibility: N/A

Pressure: 29.71 "Hg

Humidity: 87%

Dew Point: 43 °F

Location of JelgavaLocation

Past Weather in Jelgava — Graph


Jelgava Temperature Yesterday

Maximum temperature yesterday: 46 °F (at 1:50 PM)
Minimum temperature yesterday: 36 °F (at 12:50 AM)
Average temperature yesterday: 41 °F

High & Low Weather Summary for the Past Weeks

High50 °F (Oct 19, 3:20 PM)100% (Oct 14, 4:20 AM)30.69 "Hg (Oct 14, 4:20 AM)
Low27 °F (Oct 17, 5:20 AM)50% (Oct 18, 2:50 PM)29.68 "Hg (Oct 28, 5:50 PM)
Average38 °F83%30.35 "Hg
* Reported Oct 13 9:20 PM — Oct 28 9:50 PM, Jelgava, Weather by CustomWeather, © 2016

Note: Actual official high and low records may vary slightly from our data, if they occured in-between our weather recording intervals... More about our weather records


Jelgava Weather History for the Previous 24 Hours

Scroll right to see more
Time TempWeatherWind HumidityBarometerVisibility
9:50 PM
Fri, Oct 28
46 °FPartly cloudy.6 mph87%29.71 "HgN/A
9:20 PM48 °FPartly cloudy.7 mph87%29.71 "HgN/A
8:50 PM48 °FPassing clouds.6 mph87%29.68 "HgN/A
8:20 PM48 °FPassing clouds.6 mph87%29.68 "HgN/A
7:50 PM48 °FPartly cloudy.7 mph94%29.71 "HgN/A
7:20 PM50 °FPassing clouds.8 mph94%29.68 "HgN/A
6:50 PM48 °FPartly cloudy.7 mph100%29.68 "HgN/A
6:20 PM50 °FOvercast.9 mph94%29.68 "HgN/A
5:50 PM50 °FOvercast.10 mph94%29.68 "HgN/A
5:20 PM50 °FSprinkles. Cloudy.10 mph94%29.71 "HgN/A
4:50 PM50 °FPartly sunny.13 mph94%29.71 "HgN/A
4:20 PM50 °FPartly sunny.13 mph94%29.71 "HgN/A
3:50 PM48 °FLight rain. Mostly cloudy.12 mph100%29.74 "Hg5 mi
3:20 PM48 °FRain. Mostly cloudy.15 mph94%29.74 "Hg2 mi
2:50 PM48 °FRain. Mostly cloudy.15 mph94%29.77 "Hg2 mi
2:20 PM48 °FRain. Low clouds.16 mph94%29.77 "Hg2 mi
1:50 PM46 °FLight rain. Mostly cloudy.18 mph100%29.80 "Hg4 mi
1:20 PM46 °FLight rain. Mostly cloudy.17 mph100%29.83 "Hg4 mi
12:50 PM46 °FLight rain. Mostly cloudy.17 mph93%29.86 "Hg4 mi
12:20 PM46 °FLight rain. Fog.17 mph93%29.89 "Hg3 mi
11:50 AM46 °FLight rain. Fog.17 mph93%29.89 "Hg3 mi
11:20 AM46 °FLight rain. Fog.16 mph93%29.92 "Hg3 mi
10:50 AM45 °FLight rain. Fog.17 mph100%29.95 "Hg2 mi
10:20 AM45 °FLight rain. Fog.17 mph93%29.98 "Hg2 mi
9:50 AM45 °FLight rain. Fog.17 mph93%29.98 "Hg2 mi
9:20 AM45 °FRain. Fog.20 mph93%30.01 "Hg2 mi
8:50 AM45 °FRain. Fog.17 mph93%30.04 "Hg2 mi
8:20 AM45 °FLight rain. Fog.17 mph93%30.04 "Hg3 mi
7:50 AM45 °FLight rain. Fog.17 mph93%30.07 "Hg3 mi
7:20 AM45 °FLight rain. Fog.15 mph93%30.07 "Hg3 mi
6:50 AM45 °FLow clouds.15 mph93%30.09 "Hg4 mi
6:20 AM45 °FLow clouds.14 mph93%30.12 "Hg4 mi
5:50 AM45 °FLow clouds.13 mph93%30.12 "Hg4 mi
5:20 AM45 °FOvercast.13 mph93%30.15 "Hg5 mi
4:50 AM45 °FOvercast.13 mph93%30.15 "Hg6 mi
4:20 AM45 °FOvercast.15 mph93%30.15 "Hg6 mi
3:50 AM45 °FOvercast.15 mph93%30.18 "Hg6 mi
3:20 AM45 °FOvercast.14 mph87%30.18 "Hg5 mi
2:50 AM45 °FOvercast.13 mph87%30.21 "HgN/A
2:20 AM45 °FOvercast.15 mph87%30.21 "HgN/A
1:50 AM45 °FOvercast.15 mph87%30.21 "HgN/A
1:20 AM45 °FOvercast.15 mph87%30.24 "HgN/A
12:50 AM45 °FMostly cloudy.14 mph87%30.24 "HgN/A
12:20 AM45 °FOvercast.13 mph87%30.24 "HgN/A
11:50 PM
Thu, Oct 27
45 °FMostly cloudy.14 mph87%30.24 "HgN/A
11:20 PM45 °FMostly cloudy.13 mph87%30.24 "HgN/A
Weather by CustomWeather, © 2016

See weather overviewHow to use our weather pages